Location: Omaha
(41.2590°N, 95.9380°W)
Time: 17:16:36
(UTC-06:00)

Vanguard 1 - Visible Passes

Search period start: 17 December 2017 00:00
Search period end: 27 December 2017 00:00
Orbit: 650 x 3834 km, 34.2° (Epoch: 16 December)

Date Brightness Start Highest point End Pass type
(mag) Time Alt. Az. Time Alt. Az. Time Alt. Az.
17 Dec 14.3 05:54:36 10° SSW 06:12:50 31° SE 06:29:15 10° E visible
18 Dec 14.5 04:04:01 10° SE 04:10:44 12° SE 04:17:31 10° ESE visible
18 Dec 14.1 06:13:58 10° SSW 06:33:45 38° SE 06:51:17 10° E visible
19 Dec 14.3 04:18:44 10° SSE 04:31:17 18° SE 04:44:05 10° E visible
19 Dec 13.9 06:33:50 10° SSW 06:54:47 45° SSE 07:12:57 10° E visible
20 Dec 14.2 04:36:21 10° S 04:51:53 25° SE 05:07:47 10° E visible
20 Dec 13.7 06:54:06 10° SW 07:15:55 52° SSE 07:34:26 10° E visible
21 Dec 14.1 04:55:05 10° S 05:12:33 32° SE 05:30:27 10° E visible
21 Dec 13.6 07:14:42 10° SW 07:37:09 58° SSE 07:55:46 10° E visible
22 Dec 14.3 03:05:14 10° SE 03:11:06 12° ESE 03:17:14 10° ESE visible
22 Dec 13.9 05:14:30 10° SSW 05:33:19 39° SE 05:52:33 10° E visible
23 Dec 14.1 03:19:57 10° SSE 03:31:25 18° SE 03:44:06 10° E visible
23 Dec 13.7 05:34:23 10° SSW 05:54:13 46° SSE 06:14:19 10° E visible
24 Dec 13.9 03:37:39 10° S 03:51:48 25° SE 04:07:57 10° E visible
24 Dec 13.5 05:54:39 10° SW 06:15:16 53° SSE 06:35:54 10° E visible
25 Dec 13.8 03:56:27 10° S 04:12:17 31° SE 04:30:44 10° E visible
25 Dec 13.4 06:15:13 10° SW 06:36:27 59° SSE 06:57:21 10° E visible
26 Dec 14.1 02:08:38 10° SE 02:11:40 10° ESE 02:14:50 10° ESE visible
26 Dec 13.6 04:15:55 10° SSW 04:32:54 39° SE 04:52:56 10° E visible
26 Dec 13.3 06:36:01 10° WSW 06:57:46 64° SSE 07:18:43 10° E visible
